STARLINK-32765, 62747

Orbit data source: Space-Track

STARLINK-32765, 62747 is a payload satellite owned by SpaceX/Seattle (US) in LEO that was launched on Tue, 21 Jan 2025 UTC via an FALCON 9 launch vehicle from the Air Force Eastern Test Range (AFETR). Payload-class satellites include a variety of spacecraft equipped with specific instruments for various scientific and technological missions. These include communications satellites like Starlink; space stations such as the ISS; scientific satellites like the Hubble; Earth observation satellites from companies like Planet Labs, Umbra, and HawkEye 360; GPS; miniature CubeSats for education and research; and military/defense satellites.

Loading next visibility...
Identifier
62747, 2025-014N
Orbit
LEO
Country
Flag of USUS
Related business
Manufacturer
SpaceX/Seattle
Mission
Operational Commercial Communications
Bus & Motor
STARLINK V2M, Unknown motor
Mass
730 kg wet, ~700 kg dry
Launch date (UTC)
2025-01-21 (11 months ago)
Launch vehicle
FALCON 9
Launch site
Air Force Eastern Test Range (AFETR)
Object type
Payload
Rocket body
Debris
Shape & HBR
Box + 2 Pan, 17.7 m
Radar Cross Section
33.884 m², Large (>1 m²)

Expand to show TLE details & history
Last TLE update: 18 hours ago

TLE from 18 hours ago
0 STARLINK-32765
1 62747U 25014N   25348.86493602  .00021100  00000-0  77409-3 0  9992
2 62747  43.0007 273.5121 0001378 248.9187 111.1517 15.27579078 50284
Epoch: 2025-12-14T20:45Z
TLE epoch observation values (Epoch: 2025-12-14T20:45:30.472Z)
Latitude
-0.00003°
Longitude
-121.63663°
Altitude
483.169 km
Speed
7.625 km/s
True Right ascension
18h 14m 02s
True Declination
0° 00' 00"
Sunlit
Object was in daylight at epoch
Visualization orbit readout
Latitude
Unknown
Longitude
Unknown
Altitude
Unknown
Speed
Unknown
Apparent Right ascension
Unknown
Apparent Declination
Unknown
Sunlit
N/A
Visualization observer readout
Local Sidereal Time
13:24:47
Azimuth
Unknown
Elevation
Unknown
Doppler factor
Unknown
Orbital elements
Apogee altitude
485.943 km
Perigee altitude
484.051 km
Semi-major axis
6,863.134 km
Eccentricity
0.00014
Inclination
43.0007°
RAAN
273.5121°
Arg. of periapsis
248.9187°
True anomaly
111.16643°
Mean anomaly
111.1517°
Eccentric anomaly
111.15906°
Mean motion
3.81733 °/min
Orbital period
94.31 mins
BSTAR
0.00077409
Loading maneuver chart data...
Computing Atmospheric mass density...
Loading historical data...
Loading historical data...
Loading historical data...
Loading historical data...
Loading historical data...
Loading historical data...
Loading historical data...

Documentation

Showing up to 5 results
|